When you browse on this site, cookies collect data to enhance your experience and personalize the content and advertising you see.
Visit our Privacy Policy to learn more. By continuing to use the site, you agree to this use of cookies and data.
  • In Slovakia
  • List of Countries
  • For 7 days
  • Water Temperature
  • Satellite Maps
  • Weather Map
  • Weather Widgets
  • user-avatar
    Login

    Hourly Weather Wodynie

    Today, 21 April, Sunday

    Time Temperature Precipitation Wind Pressure Humidity
    00:00 +9°C° 0 mm 3 mps 753 mmHg 72%
    01:00 +8°C° 0 mm 3 mps 753 mmHg 73%
    02:00 +7°C° 0 mm 3 mps 752 mmHg 76%
    03:00 +7°C° 0 mm 3 mps 752 mmHg 79%
    04:00 +5°C° 0 mm 3 mps 752 mmHg 82%
    05:00 +7°C° 0 mm 3 mps 752 mmHg 80%
    06:00 +7°C° 0 mm 3 mps 752 mmHg 78%
    07:00 +8°C° 0 mm 3 mps 752 mmHg 76%
    08:00 +10°C° 0 mm 4 mps 752 mmHg 69%
    09:00 +12°C° 0 mm 4 mps 752 mmHg 61%
    10:00 +14°C° 0 mm 4 mps 751 mmHg 54%
    11:00 +13°C° 0.1 mm 4 mps 751 mmHg 54%
    12:00 +13°C° 0.1 mm 4 mps 751 mmHg 53%
    13:00 +13°C° 0.1 mm 4 mps 750 mmHg 52%
    14:00 +12°C° 0.5 mm 4 mps 750 mmHg 59%
    15:00 +11°C° 0.5 mm 3 mps 749 mmHg 66%
    16:00 +10°C° 0.5 mm 3 mps 749 mmHg 72%
    17:00 +9°C° 1.9 mm 3 mps 748 mmHg 78%
    18:00 +8°C° 1.9 mm 2 mps 748 mmHg 84%
    19:00 +6°C° 1.9 mm 2 mps 748 mmHg 91%
    20:00 +7°C° 0.1 mm 1 mps 748 mmHg 91%
    21:00 +7°C° 0.1 mm 1 mps 748 mmHg 90%
    22:00 +6°C° 0.1 mm 0 mps 748 mmHg 90%
    23:00 +6°C° 0.1 mm 1 mps 748 mmHg 91%

    Tomorrow, 22 April, Monday

    Time Temperature Precipitation Wind Pressure Humidity
    00:00 +6°C° 0.1 mm 1 mps 748 mmHg 92%
    01:00 +5°C° 0.1 mm 2 mps 748 mmHg 93%
    02:00 +5°C° 0 mm 2 mps 749 mmHg 94%
    03:00 +4°C° 0 mm 3 mps 749 mmHg 95%
    04:00 +4°C° 0 mm 3 mps 749 mmHg 96%
    05:00 +5°C° 0 mm 4 mps 749 mmHg 92%
    06:00 +6°C° 0 mm 5 mps 750 mmHg 88%
    07:00 +8°C° 0 mm 5 mps 750 mmHg 84%
    08:00 +9°C° 0 mm 6 mps 751 mmHg 79%
    09:00 +11°C° 0 mm 6 mps 751 mmHg 73%
    10:00 +14°C° 0 mm 7 mps 751 mmHg 67%
    11:00 +14°C° 0 mm 7 mps 751 mmHg 64%
    12:00 +13°C° 0 mm 8 mps 751 mmHg 61%
    13:00 +13°C° 0 mm 8 mps 751 mmHg 58%
    14:00 +13°C° 0 mm 8 mps 751 mmHg 56%
    15:00 +13°C° 0 mm 8 mps 752 mmHg 53%
    16:00 +14°C° 0 mm 7 mps 752 mmHg 50%
    17:00 +12°C° 0 mm 7 mps 752 mmHg 53%
    18:00 +11°C° 0 mm 6 mps 752 mmHg 57%
    19:00 +9°C° 0 mm 5 mps 752 mmHg 60%
    20:00 +9°C° 0 mm 5 mps 753 mmHg 59%
    21:00 +8°C° 0 mm 6 mps 753 mmHg 58%
    22:00 +8°C° 0 mm 6 mps 753 mmHg 57%
    23:00 +7°C° 0 mm 6 mps 753 mmHg 57%

    Day after tomorrow, 23 April, Tuesday

    Time Temperature Precipitation Wind Pressure Humidity
    00:00 +7°C° 0 mm 6 mps 753 mmHg 58%
    01:00 +7°C° 0 mm 6 mps 753 mmHg 59%
    02:00 +5°C° 0 mm 6 mps 753 mmHg 59%
    03:00 +5°C° 0 mm 7 mps 753 mmHg 59%
    04:00 +5°C° 0 mm 7 mps 753 mmHg 59%
    05:00 +6°C° 0 mm 8 mps 753 mmHg 57%
    06:00 +7°C° 0 mm 9 mps 753 mmHg 55%
    07:00 +8°C° 0 mm 9 mps 753 mmHg 54%
    08:00 +9°C° 0 mm 10 mps 753 mmHg 51%
    09:00 +12°C° 0 mm 10 mps 753 mmHg 49%
    10:00 +13°C° 0 mm 11 mps 752 mmHg 46%
    11:00 +13°C° 0 mm 11 mps 752 mmHg 45%
    12:00 +14°C° 0 mm 11 mps 752 mmHg 44%
    13:00 +16°C° 0 mm 11 mps 751 mmHg 42%
    14:00 +16°C° 0 mm 11 mps 751 mmHg 44%
    15:00 +14°C° 0 mm 10 mps 751 mmHg 46%
    16:00 +14°C° 0 mm 10 mps 750 mmHg 47%
    17:00 +13°C° 0 mm 9 mps 750 mmHg 50%
    18:00 +12°C° 0 mm 8 mps 750 mmHg 53%
    19:00 +11°C° 0 mm 7 mps 750 mmHg 55%
    20:00 +11°C° 0 mm 8 mps 750 mmHg 56%
    21:00 +10°C° 0 mm 8 mps 750 mmHg 56%
    22:00 +10°C° 0 mm 8 mps 750 mmHg 56%
    23:00 +10°C° 0 mm 8 mps 750 mmHg 57%

    24 April, Wednesday

    Time Temperature Precipitation Wind Pressure Humidity
    00:00 +10°C° 0 mm 9 mps 750 mmHg 59%
    01:00 +8°C° 0 mm 9 mps 749 mmHg 60%
    02:00 +8°C° 0 mm 9 mps 749 mmHg 62%
    03:00 +8°C° 0 mm 9 mps 749 mmHg 63%
    04:00 +8°C° 0 mm 9 mps 749 mmHg 64%
    05:00 +8°C° 0.1 mm 9 mps 749 mmHg 66%
    06:00 +8°C° 0.1 mm 9 mps 749 mmHg 68%
    07:00 +8°C° 0.1 mm 9 mps 749 mmHg 69%
    08:00 +10°C° 0 mm 9 mps 749 mmHg 67%
    09:00 +11°C° 0 mm 9 mps 749 mmHg 65%
    10:00 +13°C° 0 mm 10 mps 749 mmHg 62%
    11:00 +15°C° 0 mm 9 mps 749 mmHg 61%
    12:00 +16°C° 0 mm 9 mps 749 mmHg 59%
    13:00 +17°C° 0 mm 9 mps 749 mmHg 57%
    14:00 +18°C° 0 mm 9 mps 749 mmHg 58%
    15:00 +18°C° 0 mm 8 mps 749 mmHg 59%
    16:00 +18°C° 0 mm 7 mps 748 mmHg 60%
    17:00 +17°C° 0 mm 7 mps 748 mmHg 63%
    18:00 +16°C° 0 mm 7 mps 749 mmHg 66%
    19:00 +15°C° 0 mm 6 mps 749 mmHg 69%
    20:00 +15°C° 0 mm 6 mps 749 mmHg 71%
    21:00 +14°C° 0 mm 6 mps 749 mmHg 73%
    22:00 +14°C° 0 mm 6 mps 749 mmHg 75%
    23:00 +13°C° 0 mm 6 mps 749 mmHg 76%

    25 April, Thursday

    Time Temperature Precipitation Wind Pressure Humidity
    00:00 +11°C° 0 mm 6 mps 749 mmHg 77%
    01:00 +12°C° 0 mm 5 mps 749 mmHg 78%
    02:00 +10°C° 0 mm 5 mps 749 mmHg 79%
    03:00 +10°C° 0 mm 5 mps 749 mmHg 80%
    04:00 +10°C° 0 mm 5 mps 749 mmHg 80%
    05:00 +11°C° 0 mm 6 mps 749 mmHg 79%
    06:00 +13°C° 0 mm 6 mps 749 mmHg 77%
    07:00 +14°C° 0 mm 6 mps 749 mmHg 75%
    08:00 +16°C° 0 mm 7 mps 749 mmHg 70%
    09:00 +18°C° 0 mm 7 mps 749 mmHg 65%
    10:00 +21°C° 0 mm 7 mps 748 mmHg 60%
    11:00 +22°C° 0 mm 8 mps 748 mmHg 57%
    12:00 +22°C° 0 mm 8 mps 748 mmHg 55%
    13:00 +23°C° 0 mm 8 mps 747 mmHg 52%
    14:00 +23°C° 0.2 mm 7 mps 747 mmHg 54%
    15:00 +23°C° 0.2 mm 7 mps 747 mmHg 57%
    16:00 +22°C° 0.2 mm 7 mps 746 mmHg 59%
    17:00 +21°C° 0.1 mm 6 mps 746 mmHg 64%
    18:00 +19°C° 0.1 mm 6 mps 746 mmHg 69%
    19:00 +17°C° 0.1 mm 5 mps 746 mmHg 74%
    20:00 +16°C° 0.1 mm 5 mps 746 mmHg 77%
    21:00 +16°C° 0.1 mm 6 mps 746 mmHg 80%
    22:00 +15°C° 0.1 mm 6 mps 746 mmHg 83%
    23:00 +15°C° 0 mm 5 mps 745 mmHg 85%

    26 April, Friday

    Time Temperature Precipitation Wind Pressure Humidity
    00:00 +14°C° 0 mm 5 mps 745 mmHg 88%
    01:00 +14°C° 0 mm 5 mps 745 mmHg 90%
    02:00 +14°C° 0 mm 5 mps 745 mmHg 90%
    03:00 +13°C° 0 mm 5 mps 744 mmHg 91%
    04:00 +13°C° 0 mm 5 mps 744 mmHg 91%
    05:00 +14°C° 0 mm 5 mps 744 mmHg 87%
    06:00 +16°C° 0 mm 5 mps 744 mmHg 82%
    07:00 +17°C° 0 mm 6 mps 744 mmHg 78%
    08:00 +19°C° 0 mm 6 mps 744 mmHg 72%
    09:00 +21°C° 0 mm 6 mps 744 mmHg 66%
    10:00 +23°C° 0 mm 7 mps 744 mmHg 60%
    11:00 +24°C° 0 mm 7 mps 743 mmHg 56%
    12:00 +26°C° 0 mm 7 mps 743 mmHg 53%
    13:00 +27°C° 0 mm 7 mps 743 mmHg 50%
    14:00 +26°C° 0 mm 7 mps 742 mmHg 51%
    15:00 +26°C° 0 mm 6 mps 742 mmHg 52%
    16:00 +26°C° 0 mm 6 mps 742 mmHg 53%
    17:00 +23°C° 0 mm 5 mps 742 mmHg 60%
    18:00 +21°C° 0 mm 5 mps 742 mmHg 66%
    19:00 +20°C° 0 mm 4 mps 742 mmHg 72%
    20:00 +19°C° 0.1 mm 3 mps 742 mmHg 76%
    21:00 +18°C° 0.1 mm 3 mps 742 mmHg 80%
    22:00 +17°C° 0.1 mm 2 mps 742 mmHg 84%
    23:00 +17°C° 0.7 mm 2 mps 742 mmHg 88%
    Show more